Location: Newark
(0.5300°S, 127.4800°E)
Time: 06:56:22
(UTC+00:00)

Transit 4A - Pass Details

Date: 29 September 2019
Orbit: 867 x 978 km, 66.8° (Epoch: 21 October)

Event Time Altitude Azimuth Distance (km) Brightness Sun altitude
Rises 10:12:08 0° 14° (NNE) 3,469 10.7 -12.9°
Reaches altitude 10° 10:15:56 10° 39° (NE) 2,518 9.8 -13.8°
Enters shadow 10:17:12 13° 51° (NE) 2,327 9.5 -14.1°
